EHI
0 0 0 0 0 0 0 1 1 6 14 17 11 4 1 0 0 0 0 0 0 0 0 0 0 0 0 0 0 0 0 0 0 0 0 0 0 0 0 0 0 0 0 0
0 0 0 0 1 2 5 6 6 9 14 12 7 2 0 0 0 0 0 0 0 0 0 0 0 0 0 0 0 0 0 0 0 0 0 0 0 0 0 0 0 0 0 0
0 0 0 0 1 4 9 12 12 12 11 6 2 0 0 0 0 0 0 0 0 0 0 0 0 0 0 0 0 0 0 0 0 0 0 0 0 0 0 0 0 0 0 0
0 0 0 0 1 3 7 10 11 10 5 2 0 0 0 0 0 0 0 0 0 0 0 0 0 0 0 0 0 0 0 0 0 0 0 0 0 0 0 0 0 0 0 0
0 0 0 0 0 0 1 3 4 4 2 0 0 0 0 0 0 0 0 0 0 0 0 0 0 0 0 0 0 0 0 0 0 0 0 0 0 0 0 0 0 0 0 0
0 0 0 0 0 0 0 0 0 0 0 0 0 0 0 0 0 0 0 0 0 0 0 0 0 0 0 0 0 0 0 0 0 0 0 0 0 0 0 0 0 0 0 0
0 0 0 0 0 0 0 0 0 0 0 0 0 0 0 0 0 0 0 0 0 0 0 0 0 0 0 0 0 0 0 0 0 0 0 0 0 0 0 0 0 0 0 0
0 0 0 0 0 0 0 0 0 0 0 0 0 0 0 0 0 0 0 0 0 0 0 0 0 0 0 0 0 0 0 0 0 0 0 0 0 0 0 0 0 0 0 0
0 0 0 0 0 0 0 0 0 0 0 0 0 0 0 0 0 0 0 0 0 0 0 0 0 0 0 0 0 0 0 0 0 0 0 0 0 0 0 0 0 0 0 0
0 0 0 0 0 0 0 0 0 0 0 0 0 0 0 0 0 0 0 0 0 0 0 0 0 0 0 0 0 0 0 0 0 0 0 0 0 0 0 0 0 0 0 0
0 0 0 0 0 0 0 0 0 0 0 0 0 0 0 0 0 0 0 0 0 0 0 0 0 0 0 0 0 0 0 0 0 0 0 0 0 0 0 0 0 0 0 0
0 0 0 0 0 0 0 0 0 0 0 0 0 0 0 0 0 0 0 0 0 0 0 0 0 0 0 0 0 0 0 0 0 0 0 0 0 0 0 0 0 0 0 0
0 0 0 0 0 0 0 0 0 0 0 0 0 0 0 0 0 0 0 0 0 0 0 0 0 0 0 0 0 0 0 0 0 0 0 0 0 0 0 0 0 0 0 0
0 0 0 0 0 0 0 0 0 0 0 0 0 0 0 0 0 0 0 0 0 0 0 0 0 0 0 0 0 0 0 0 0 0 0 0 0 0 0 0 0 0 0 0
0 0 0 0 0 0 0 0 0 0 0 0 0 0 0 0 0 0 0 0 0 0 0 0 0 0 0 0 0 0 0 0 0 0 0 0 0 0 0 0 0 0 0 0
0 0 0 0 0 0 0 0 0 0 0 0 0 0 0 0 0 0 0 0 0 0 0 0 0 0 0 0 0 0 0 0 0 0 0 0 0 0 0 0 0 0 0 0
0 0 0 0 0 0 0 0 0 0 0 0 0 0 0 0 0 0 0 0 0 0 0 0 0 0 0 0 0 0 0 0 0 0 0 0 0 0 0 0 0 0 0 0
0 0 0 0 0 0 0 0 0 0 0 0 0 0 0 0 0 0 0 0 0 0 0 0 0 0 0 0 0 0 0 0 0 0 0 0 0 0 0 0 0 0 0 0
0 0 0 0 0 0 0 0 0 0 0 0 0 0 0 0 0 0 0 0 0 0 0 0 0 0 0 0 0 0 0 0 0 0 0 0 0 0 0 0 0 0 0 0
0 0 0 0 0 0 0 0 0 0 0 0 0 0 0 0 0 0 0 0 0 0 0 0 0 0 0 0 0 0 0 0 0 0 0 0 0 0 0 0 0 0 0 0
0 0 0 0 0 0 0 0 0 0 0 0 0 0 0 0 0 0 0 0 0 0 0 0 0 0 0 0 0 0 0 0 0 0 0 0 0 0 0 0 0 0 0 0
0 0 0 0 0 0 0 0 0 0 0 0 0 0 0 0 0 0 0 0 0 0 0 0 0 0 0 0 0 0 0 0 0 0 0 0 0 0 0 0 0 0 0 0
0 0 0 0 0 0 0 0 0 0 0 0 0 0 0 0 0 0 0 0 0 0 0 0 0 0 0 0 0 0 0 0 0 0 0 0 0 0 0 0 0 0 0 0
0 0 0 0 0 0 0 0 0 0 0 0 0 0 0 0 0 0 0 0 0 0 0 0 0 0 0 0 0 0 0 0 0 0 0 0 0 0 0 0 0 0 0 0
0 0 0 0 0 0 0 0 0 0 0 0 0 0 0 0 0 0 0 0 0 0 0 0 0 0 0 0 0 0 0 0 0 0 0 0 0 0 0 0 0 0 0 0
0 0 0 0 0 0 0 0 0 0 0 0 0 0 0 0 0 0 0 0 0 0 0 0 0 0 0 0 0 0 0 0 0 0 0 0 0 0 0 0 0 0 0 0
0 0 0 0 0 0 0 0 0 0 0 0 0 0 0 0 0 0 0 0 0 0 0 0 0 0 0 0 0 0 0 0 0 0 0 0 0 0 0 0 0 0 0 0
Wind_Speed
3 7 5 6 8 8 7 6 3 4 10 11 12 14 14 14 14 14 13 12 12 11 10 10 10 10 10 11 10 10 10 10 9 8 7 7 6 6 5 5 5 4 4 5
6 4 3 3 4 5 2 5 6 13 12 12 14 14 13 13 13 14 13 12 11 11 10 9 9 9 9 9 8 8 8 8 7 7 6 5 5 5 5 5 5 5 5 5
8 4 4 1 5 8 11 12 8 9 10 14 14 13 12 12 13 13 12 11 10 9 8 8 7 7 8 7 7 7 6 6 6 6 5 5 5 5 5 4 4 4 4 4
7 6 4 5 7 10 12 14 15 16 15 14 15 14 12 11 12 11 10 9 9 7 7 7 7 7 6 6 6 6 6 5 5 4 5 4 5 5 4 3 3 2 3 4
5 5 2 6 8 7 7 11 12 15 16 16 17 16 11 10 10 10 9 8 7 7 7 6 6 5 5 5 5 5 5 5 5 5 4 4 4 3 2 2 2 2 2 3
6 5 3 4 5 4 4 7 9 13 13 13 10 6 6 8 10 9 9 8 7 7 7 6 5 4 4 4 4 4 4 4 4 4 3 3 3 2 2 2 2 3 2 2
6 2 6 6 8 6 2 5 7 9 9 7 5 9 12 11 10 9 9 8 7 7 6 5 4 3 3 4 4 4 4 4 3 2 1 1 2 2 2 2 2 2 2 2
6 3 4 11 8 8 7 8 10 11 12 14 16 16 13 12 10 10 9 8 7 6 5 4 3 2 3 4 3 3 3 2 2 2 3 3 2 2 2 3 3 3 2 2
6 5 6 9 10 9 9 10 11 12 13 15 16 14 13 12 10 9 8 7 6 6 5 4 3 3 4 3 3 2 2 1 1 2 2 2 2 3 2 2 3 4 4 4
4 7 8 9 10 10 10 10 11 12 13 14 15 14 13 11 9 8 7 6 5 6 6 5 4 4 4 3 3 3 2 2 2 2 2 1 1 2 2 3 5 5 5 5
4 7 8 9 9 10 10 10 11 12 12 14 15 14 12 10 9 7 7 6 5 5 5 5 5 3 3 2 2 2 2 3 3 3 2 1 0 2 3 5 5 5 6 6
3 4 5 8 8 9 9 10 11 12 13 13 13 13 12 10 8 7 7 6 5 5 5 5 4 2 2 1 2 2 3 3 4 3 2 2 1 3 6 6 8 7 4 4
6 9 11 10 9 9 10 10 11 12 13 13 12 11 11 10 8 8 7 6 5 5 4 3 1 1 1 2 3 4 3 3 4 4 3 2 1 2 4 4 3 2 1 3
9 9 10 10 9 9 11 11 12 13 13 12 11 11 10 9 9 8 7 6 5 4 3 1 1 2 3 3 3 4 4 1 3 3 3 3 3 2 2 3 2 2 3 5
6 8 11 11 11 11 11 12 13 13 13 12 11 10 10 9 8 7 6 5 3 2 2 3 4 4 5 5 5 6 5 1 2 3 2 2 2 3 4 4 3 2 1 1
10 12 12 12 12 12 12 13 13 13 12 11 10 10 9 9 8 6 5 4 3 3 4 4 5 6 6 5 5 6 1 2 2 3 2 3 3 4 4 4 3 3 3 4
11 12 13 13 12 12 12 12 12 12 11 11 10 10 9 8 7 6 5 4 3 3 4 5 6 7 7 6 7 7 1 5 4 2 4 4 4 4 4 3 3 3 3 3
11 12 12 13 13 13 13 12 12 12 11 11 11 10 8 7 6 5 4 3 2 3 3 5 5 7 7 6 5 6 5 2 3 4 4 4 3 3 3 4 4 4 2 1
13 14 13 13 13 13 12 12 12 12 11 11 10 9 7 7 6 4 3 1 1 3 4 4 4 6 4 3 4 6 2 3 4 3 3 3 1 3 4 4 4 4 3 3
14 15 15 14 14 13 12 12 12 11 10 10 9 8 7 6 5 4 2 2 3 4 3 3 5 4 4 4 6 6 4 4 3 3 3 4 4 4 4 5 5 4 4 4
15 16 16 15 14 13 13 13 11 10 10 9 9 8 7 6 5 3 2 3 4 4 4 3 2 4 5 8 10 5 4 4 4 5 5 5 5 5 5 5 5 5 4 4
15 15 15 15 14 13 12 11 10 10 10 9 8 8 7 6 5 3 3 3 5 4 4 4 5 5 9 11 7 5 6 5 5 5 5 5 5 5 5 5 5 5 5 5
13 14 14 14 14 13 12 11 10 9 9 8 8 8 7 5 4 4 4 4 5 4 4 5 4 7 11 9 4 6 6 5 5 5 5 5 5 5 5 5 5 5 4 4
14 14 13 13 13 13 12 11 10 8 8 8 8 7 5 4 3 5 7 6 5 3 4 2 4 8 10 6 4 6 6 6 5 5 5 5 5 5 5 5 5 5 4 5
14 13 14 14 12 11 11 11 10 9 9 7 8 7 6 4 4 6 6 7 6 4 4 4 8 9 7 3 7 7 7 6 6 5 6 5 6 6 5 5 5 5 4 5
12 11 10 10 8 8 9 9 9 8 8 7 7 7 5 4 6 6 5 6 6 5 5 5 5 5 1 6 6 5 5 4 4 5 6 6 7 6 5 5 6 5 5 5
13 10 9 10 10 10 10 9 9 9 8 8 8 7 6 6 6 5 5 5 5 3 2 2 3 5 6 6 6 5 5 5 5 5 5 5 5 5 5 5 5 4 5 5
Wind_Direction
213 241 271 311 305 285 269 277 289 115 123 122 118 116 117 115 112 106 98 90 85 82 77 74 73 70 68 66 65 69 75 77 76 78 77 74 69 63 58 51 55 43 38 37
279 235 260 273 306 293 327 37 78 93 88 102 108 109 113 115 112 106 100 94 88 85 83 78 76 77 77 75 73 75 77 80 78 76 73 70 70 62 55 47 41 34 32 34
299 310 299 347 22 44 51 43 57 89 108 117 110 108 112 113 109 106 104 98 92 88 86 85 81 82 83 82 81 82 81 80 77 73 66 58 59 58 49 43 42 37 27 28
292 296 287 78 55 65 69 62 76 95 109 109 104 96 92 100 108 107 106 104 101 99 94 92 93 91 90 93 92 88 82 76 73 70 67 61 55 50 42 32 25 24 26 18
302 300 79 55 21 19 65 76 90 107 112 115 113 97 80 85 99 106 107 107 106 107 106 103 99 100 99 95 93 91 85 76 62 53 48 49 46 39 30 9 6 1 27 14
305 317 34 47 346 352 91 90 96 117 129 140 143 112 113 112 108 107 106 109 109 108 107 104 103 109 111 106 99 91 85 72 61 47 36 37 26 7 0 342 347 348 6 351
306 331 78 4 336 326 0 95 108 115 125 127 92 107 126 125 118 115 113 113 114 112 111 114 119 125 117 107 93 88 88 82 67 33 0 53 6 338 325 330 337 325 331 336
350 10 49 4 27 51 87 103 103 103 103 103 107 115 123 125 122 121 120 120 121 121 120 121 127 129 108 91 86 89 86 81 55 358 342 27 359 331 330 329 319 318 335 352
36 68 81 59 75 90 101 102 102 106 112 118 122 125 126 125 124 126 128 132 135 132 124 120 110 95 91 87 80 79 74 40 355 337 330 331 325 326 345 350 346 355 360 1
88 105 99 90 88 86 88 96 106 115 122 125 126 128 128 128 130 134 135 137 138 131 119 110 98 86 83 72 51 32 6 351 316 297 284 282 307 342 17 14 9 4 7 2
98 122 114 97 94 95 96 101 107 111 118 126 129 132 133 133 135 135 133 130 127 121 115 109 103 94 86 75 43 5 335 315 303 292 287 260 139 48 47 65 58 25 12 0
74 103 116 114 105 108 111 113 116 118 119 127 130 130 131 132 132 131 127 125 119 115 111 112 112 102 74 36 359 335 322 314 305 299 301 306 140 121 74 103 112 94 62 5
81 89 104 109 107 108 114 117 119 124 127 127 127 131 132 131 130 126 123 124 124 120 116 115 116 88 14 347 331 317 311 315 310 319 333 329 333 152 141 127 130 139 227 309
105 110 117 117 113 113 117 120 123 125 126 128 132 134 130 128 127 125 121 120 123 128 130 124 49 13 353 335 319 306 304 325 295 305 324 337 354 23 87 123 152 184 216 252
125 117 119 118 119 121 125 127 127 128 129 132 133 131 130 128 125 121 123 127 129 118 73 36 19 1 344 336 329 306 300 342 320 314 320 10 21 35 64 72 74 79 91 200
120 119 125 128 131 135 136 135 132 133 134 132 129 128 126 123 123 123 125 123 105 65 39 18 3 347 334 338 325 294 204 112 302 315 3 47 50 50 59 62 52 49 45 27
139 141 141 141 142 142 139 136 136 136 135 135 132 131 131 132 131 132 125 106 87 69 39 22 7 340 336 1 339 325 66 156 210 303 47 38 39 51 57 54 55 57 55 42
143 143 146 147 146 143 142 141 141 140 140 139 140 140 142 143 139 133 133 143 139 94 53 39 14 328 334 11 350 325 325 36 86 66 63 47 23 41 61 61 63 62 77 92
135 140 143 145 144 145 146 145 145 147 145 144 143 145 144 137 133 142 160 161 83 82 48 23 321 291 323 29 325 284 294 37 78 84 92 124 78 59 60 60 64 60 51 44
138 140 143 144 146 148 147 147 149 146 146 146 143 141 138 139 150 157 148 85 52 45 35 4 326 346 352 30 336 318 24 37 60 75 71 81 71 68 66 62 63 62 52 44
142 144 147 147 149 151 150 149 148 150 149 148 148 145 143 152 161 161 194 123 89 37 328 282 311 355 13 352 311 315 36 36 57 68 59 66 69 70 67 62 61 62 56 47
146 148 150 149 150 149 148 149 154 154 151 155 154 147 151 167 167 138 77 75 88 19 337 40 49 28 356 331 313 28 44 37 56 73 67 59 66 73 72 68 64 63 62 56
148 151 152 152 152 149 151 158 161 158 161 164 157 158 173 186 183 166 129 107 83 31 23 46 19 343 338 316 337 54 52 45 53 71 79 71 68 73 77 76 73 68 62 62
152 154 153 154 154 156 162 166 161 164 172 169 161 170 180 178 147 105 105 108 83 62 71 75 300 306 310 295 28 49 46 47 54 62 74 85 82 77 77 77 78 78 72 63
156 156 157 159 162 165 167 165 164 174 181 175 167 172 195 189 141 119 120 125 144 180 163 190 246 270 284 29 65 68 58 43 31 34 62 65 79 82 76 72 72 71 65 63
158 162 161 168 167 168 171 172 175 181 184 176 172 180 190 149 127 131 155 162 166 200 212 200 204 216 123 74 72 75 95 113 96 74 65 69 73 76 78 80 78 73 66 56
164 162 164 174 176 180 181 181 182 183 183 178 176 177 169 155 157 168 181 171 173 186 166 121 85 80 75 76 77 76 72 69 68 75 78 76 80 86 87 78 74 76 78 65